Flag for U.S.A. Weather past 2 weeks in Fullerton, California, U.S.A.

Now
87 °F

Sunny.


Feels Like: 87 °F
Forecast: 66 / 89 °F
Wind: 8 mph from Southwest

Location: Fullerton Municipal Airport

Current Time: Aug 4, 2015 at 3:05:50 PM

Latest Report: Aug 4, 2015 at 1:53 PM


Visibility: 10 mi

Pressure: 29.90 "Hg

Humidity: 40%

Dew point: 60 °F

Location of FullertonLocation

Historic Weather in Fullerton — Graph

°F

Fullerton temperature yesterday

Maximum temperature yesterday: 85 °F (at 2:53 PM)
Minimum temperature yesterday: 70 °F (at 2:03 AM)
Average temperature yesterday: 76 °F

Past Weeks' High & Low Weather Summary

 TemperatureHumidityPressure
High89 °F (Jul 25, 1:53 PM)90% (Jul 20, 9:53 PM)30.07 "Hg (Jul 20, 9:53 PM)
Low68 °F (Jul 27, 1:53 AM)30% (Jul 25, 12:53 PM)29.80 "Hg (Aug 2, 6:53 PM)
Average76 °F68%29.92 "Hg
* Reported Jul 20 1:53 PM — Aug 4 1:53 PM, Fullerton, Weather by CustomWeather, © 2015

Note: Actual official high and low records may vary slightly from our data, if they occured in-between our weather recording intervals... More about our weather records

Advertising

Fullerton weather history for previous 24 hours

 ConditionsComfort  
Time TempWeatherWind HumidityBarometerVisibility
1:53 PM
Tue, Aug 4
87 °FSunny.8 mph40%29.90 "Hg10 mi
12:53 PM86 °FSunny.8 mph42%29.90 "Hg10 mi
11:53 AM84 °FSunny.6 mph51%29.92 "Hg10 mi
10:53 AM82 °FSunny.No wind51%29.92 "Hg10 mi
9:53 AM79 °FSunny.No wind54%29.92 "Hg10 mi
8:53 AM76 °FSunny.No wind62%29.92 "Hg10 mi
7:53 AM72 °FSunny.No wind68%29.90 "Hg10 mi
6:53 AM70 °FClear.3 mph71%29.88 "Hg10 mi
5:53 AM68 °FClear.No wind76%29.88 "Hg10 mi
4:53 AM68 °FClear.3 mph76%29.85 "Hg10 mi
3:53 AM68 °FClear.No wind76%29.86 "Hg10 mi
2:53 AM69 °FClear.No wind73%29.85 "Hg10 mi
1:53 AM70 °FClear.No wind71%29.86 "Hg10 mi
12:53 AM71 °FClear.No wind68%29.87 "Hg10 mi
11:53 PM
Mon, Aug 3
73 °FClear.3 mph62%29.87 "Hg10 mi
10:53 PM74 °FClear.No wind60%29.86 "Hg10 mi
9:53 PM75 °FClear.No wind60%29.87 "Hg10 mi
8:53 PM75 °FClear.3 mph60%29.85 "Hg10 mi
7:53 PM77 °FSunny.5 mph62%29.84 "Hg10 mi
6:53 PM81 °FSunny.7 mph53%29.83 "Hg10 mi
5:53 PM85 °FSunny.8 mph51%29.83 "Hg10 mi
4:53 PM83 °FSunny.9 mph55%29.84 "Hg10 mi
3:53 PM84 °FSunny.9 mph53%29.84 "Hg10 mi
Weather by CustomWeather, © 2015

See weather overviewHow to use our weather pages